レモン彗星

C/2017 S7 ( Lemmon )

English version
Home page
Updated on February 13, 2018

---------------------------------------------------------------------

・ プロフィール

発見日 2017年9月26日
発見光度 19.6等
発見者 R. G. Matheny (Mount Lemmon survey)

・ 写真集

・ 軌道要素

Epoch 2017 June 16.0 TT = JDT 2457920.5
T 2017 May 28.09419 TT                                  MPCW
q   7.6145658            (2000.0)            P               Q
z  -0.0003162      Peri.  187.76050     +0.19974810     +0.53585010
 +/-0.0000021      Node   262.78682     +0.93755091     +0.13880421
e   1.0024076      Incl.  124.21954     +0.28477885     -0.83282535
From 121 observations 2016 Dec. 18-2018 Jan. 20, mean residual 0".4.

・ 光度変化

        m1 = 6.5 + 5 logΔ + 10.0 log r

---------------------------------------------------------------------

軌道要素はM.P.E.C. 2018-B155に掲載されたものです。
光度グラフはComet for Windowsで作成したものです。

---------------------------------------------------------------------

Copyright(C) Seiichi Yoshida (comet@aerith.net). All rights reserved.